Station FFIA2 - Five Fingers, AK Image indicating link to RSS feed of recent meteorological observations for station FFIA2


Conditions at FFIA2 as of
(3:00 pm AKDT)
2300 GMT on 05/18/2024:
     

Click on the graph icon in the table below to see a time series plot of the last five days of that observation.

5-day plot - Wind Direction Wind Direction (WDIR):WSW ( 240 deg true )
5-day plot - Wind Speed Wind Speed (WSPD): 6 kts
5-day plot - Wind Gust Wind Gust (GST): 7 kts
5-day plot - Atmospheric Pressure Atmospheric Pressure (PRES):30.14 in
5-day plot - Pressure Tendency Pressure Tendency (PTDY):+0.01 in ( Rising )
5-day plot - Air Temperature Air Temperature (ATMP): 46.6 °F
5-day plot - Wind Chill Wind Chill (CHILL): 43.2 °F
5-day plot - Wind Speed at 10 Meters Wind Speed at 10 meters (WSPD10M): 6 kts
5-day plot - Wind Speed at 20 Meters Wind Speed at 20 meters (WSPD20M): 6 kts
5-day plot -  Wind Speed, Wind Gust and Atmospheric Pressure Combined plot of Wind Speed, Gust, and Air Pressure
Continuous Winds
TIME
(AKDT)
5-day plot - Wind Direction WDIR 5-day plot - Wind Speed WSPD
3:00 pmWSW ( 243 deg ) 6 kts
2:50 pmWSW ( 237 deg ) 5 kts
2:40 pmSW ( 235 deg ) 6 kts
2:30 pmSW ( 233 deg ) 4 kts
2:20 pmSW ( 228 deg ) 4 kts
2:10 pmWSW ( 252 deg ) 1 kts
 
Peak gust during the measurement hour
TIME
(AKDT)
5-day plot - Gust Direction GDR 5-day plot - Gust Speed GST
2:59 pmWSW ( 250 deg ) 7 kts
Previous observations
TIME
(AKDT)
5-day plot - Wind Direction
WDIR
 
5-day plot - Wind Speed
WSPD
kts
5-day plot - Wind Gust
GST
kts
5-day plot - Wave Height
WVHT
ft
5-day plot - Dominant Wave Period
DPD
sec
5-day plot - Average Wave Period
APD
sec
5-day plot - Mean Wave Direction
MWD
 
5-day plot - Atmospheric Pressure
PRES
in
5-day plot - Pressure Tendency
PTDY
in
5-day plot - Air Temperature
ATMP
°F
5-day plot - Water Temperature
WTMP
°F
5-day plot - Dew Point
DEWP
°F
5-day plot - Salinity
SAL
psu
5-day plot - Visibility
VIS
nmi
5-day plot - Tide (above MLLW)
TIDE
ft
2024-05-18 02:00 pm- 0 0----30.14+0.00 47.5-----
2024-05-18 01:00 pm- 0 0----30.14+0.01 48.2-----
2024-05-18 12:00 pm- 0 1----30.13+0.01 46.8-----
2024-05-18 11:00 am N 1 2----30.13+0.02 46.0-----
2024-05-18 10:00 am N 4 4----30.13+0.01 45.0-----
2024-05-18 09:00 amNNW 8 8----30.12+0.02 44.4-----
2024-05-18 08:00 amNNW 8 8----30.11+0.01 44.6-----
2024-05-18 07:00 amNNW 9 10----30.11+0.01 44.4-----
2024-05-18 06:00 amNNW 10 11----30.10+0.01 44.8-----
2024-05-18 05:00 am NW 6 7----30.10+0.02 45.1-----
2024-05-18 04:00 am- 0 1----30.10+0.03 45.5-----
2024-05-18 03:00 am S 5 6----30.09+0.02 45.5-----
2024-05-18 02:00 amSSE 6 9----30.08+0.02 45.1-----
2024-05-18 01:00 am S 8 10----30.07+0.01 45.3-----
2024-05-18 12:00 amSSE 8 9----30.07+0.03 45.7-----
2024-05-17 11:00 pm S 9 10----30.06+0.02 47.5-----
2024-05-17 10:00 pmSSW 7 8----30.06+0.02 46.4-----
2024-05-17 09:00 pm SW 8 8----30.04+0.00 46.4-----
2024-05-17 08:00 pm SW 10 12----30.03+0.00 46.8-----
2024-05-17 07:00 pm SW 11 12----30.03+0.00 46.6-----
2024-05-17 06:00 pm SW 7 9----30.03+0.00 46.8-----
2024-05-17 05:00 pm SW 7 8----30.04-0.01 47.1-----
2024-05-17 04:00 pmWSW 6 7----30.04-0.01 46.8-----
2024-05-17 03:00 pmWSW 7 8----30.04-0.01 46.0-----